Location: Gdynia
(54.5193°N, 18.5395°E)
Time: 05:05:27
(UTC+01:00)

ISS - Pass Details

Date: 27 January 2019
Orbit: 403 x 411 km, 51.6° (Epoch: 20 February)

Event Time Altitude Azimuth Distance (km) Brightness Sun altitude
Rises 16:47:29 0° 200° (SSW) 2,324 0.8 -5.1°
Reaches altitude 10° 16:50:31 10° 169° (SSE) 1,471 -0.8 -5.5°
Maximum altitude 16:51:57 12° 143° (SE) 1,339 -1.3 -5.7°
Drops below altitude 10° 16:53:24 10° 117° (ESE) 1,477 -1.4 -5.9°
Enters shadow 16:55:02 - 97° (E) 1,884 -1.0 -6.1°
